Location: Mococo
(38.0255°N, 122.1161°W)
Time: 02:55:30
(UTC+00:00)

ISS - Pass Details

Date: 13 February 2026
Orbit: 416 x 427 km, 51.6° (Epoch: 7 March)

Event Time Altitude Azimuth Distance (km) Brightness Sun altitude
Exits shadow 13:46:02 22° 225° (SW) 977 -2.3 -15.2°
Maximum altitude 13:48:05 82° 141° (SE) 424 -3.8 -14.8°
Drops below altitude 10° 13:51:26 10° 52° (NE) 1,491 -0.3 -14.2°
Sets 13:53:32 0° 52° (NE) 2,356 0.8 -13.8°
